[[{"header":{"parameterUnit":"m.s-1","parameterCategory":1,"la1":30.2992,"la2":30.254,"lo1":-89.0895,"lo2":-89.0443,"dy":0.0025,"dx":0.0025,"nx":19,"ny":19,"refTime":"2026-04-21T03:00:00:Z","depth":0,"parameterNumber":2,"parameterNumberName":"U-component_of_WINDS"},"data":[0,0,0,-4.0281,-4.0284,-4.0427,-4.0428,-4.0617,-4.0619,0,0,0,0,0,0,0,0,0,0,0,-4.0246,-4.0247,-4.0281,-4.0285,-4.0427,-4.0428,-4.0617,-4.0619,0,0,0,0,0,0,0,0,0,0,0,-4.0245,-4.0247,-4.0249,-4.0285,-4.0427,-4.0428,-4.0617,-4.0506,0,0,0,0,0,0,0,0,0,0,-4.0366,-4.0341,-4.0247,-4.0249,-4.0286,-4.0427,-4.0428,-4.0501,-4.0513,-4.0557,0,-4.06,0,-4.0613,-4.0633,-4.0633,0,0,0,-4.0279,-4.033,-4.0363,-4.0249,-4.0288,-4.0427,-4.0361,-4.0507,-4.0521,-4.0573,-4.0602,-4.0609,-4.0616,-4.0634,-4.0635,-4.091,-4.0912,0,0,-4.0271,-4.0275,-4.0353,-4.0372,-4.0353,-4.0357,-4.0366,-4.0516,-4.0547,-4.0603,-4.0613,-4.0619,-4.0635,-4.0637,-4.0909,-4.0911,0,0,0,-4.0253,-4.027,-4.0298,-4.0365,-4.039,-4.0361,-4.0371,-4.054,-4.0549,-4.0615,-4.0621,-4.0636,-4.0639,-4.0907,-4.091,-4.0988,0,0,0,-4.0248,-4.0259,-4.0295,-4.0298,-4.0388,-4.0467,-4.0393,-4.0539,-4.0555,-4.062,-4.0637,-4.0641,-4.0906,-4.0909,-4.0982,-4.1024,0,0,0,-4.0234,-4.0257,-4.028,-4.0298,-4.036,-4.0465,-4.0482,-4.0542,-4.056,-4.0634,-4.0641,-4.0905,-4.0908,-4.0977,-4.1016,-4.1096,0,0,0,-4.0221,-4.0348,-4.0281,-4.0426,-4.0359,-4.0514,-4.0481,-4.0596,-4.0669,-4.0637,-4.0906,-4.0909,-4.0976,-4.101,-4.109,-4.1162,-4.1194,0,0,-4.0383,-4.0368,-4.0453,-4.0397,-4.0565,-4.0491,-4.067,-4.0733,-4.0737,-4.0852,-4.0859,-4.0984,-4.1015,-4.1095,-4.1371,-4.1395,0,0,0,-4.0506,-4.0566,-4.061,-4.068,-4.0733,-4.078,-4.0816,-4.0839,-4.0937,-4.0797,-4.1036,-4.1054,-4.1101,-4.1135,-4.1156,-4.1194,-4.0926,-4.0926,-4.0925,-4.074,-4.0738,-4.0877,-4.0893,-4.0961,-4.0997,-4.1051,-4.1088,-4.1067,-4.1123,-4.1156,-4.1324,-4.1364,-4.138,-4.142,-4.1196,-4.1197,-4.1197,-4.1197,-4.0976,-4.1061,-4.1029,-4.1153,-4.1149,-4.1253,-4.1291,-4.1272,-4.1367,-4.1299,-4.134,-4.1264,-4.1407,-4.1442,-4.1203,-4.1202,-4.1201,-4.1201,-4.12,-4.1127,-4.1167,-4.1194,-4.1294,-4.1372,-4.1382,-4.1474,-4.1469,-4.1464,-4.1504,-4.1537,-4.1536,-4.1531,-4.1521,-4.1522,-4.1522,-4.1523,-4.1523,-4.1523,-4.1272,-4.13,-4.1379,-4.1444,-4.1488,-4.1544,-4.1581,-4.1623,-4.1668,-4.1656,-4.1656,-4.1627,-4.1423,-4.137,-4.1532,-4.1531,-4.153,-4.1529,-4.1528,-4.1508,-4.1454,-4.1575,-4.1619,-4.1694,-4.177,-4.1762,-4.1848,-4.1882,-4.1927,-4.189,-4.1741,-4.1724,-4.1707,-4.1663,-4.1892,-4.1892,-4.1892,-4.1892,-4.1634,-4.1625,-4.1747,-4.1817,-4.1884,-4.1889,-4.2024,-4.2053,-4.2075,-4.2095,-4.2062,-4.2004,-4.1987,-4.198,-4.1958,-4.1916,-4.2204,-4.2204,-4.2205,-4.1777,-4.1775,-4.1892,-4.1913,-4.1971,-4.2021,-4.2147,-4.2226,-4.224,-4.2217,-4.211,-4.2097,-4.2004,-4.1974,-4.1946,-4.1911,-4.1836,0,0]},{"header":{"parameterUnit":"m.s-1","parameterCategory":1,"la1":30.2992,"la2":30.254,"lo1":-89.0895,"lo2":-89.0443,"dy":0.0025,"dx":0.0025,"nx":19,"ny":19,"refTime":"2026-04-21T03:00:00:Z","depth":0,"parameterNumber":3,"parameterNumberName":"V-component_of_WINDS"},"data":[0,0,0,3.3817,3.382,3.3908,3.3908,3.4038,3.4039,0,0,0,0,0,0,0,0,0,0,0,3.3803,3.3804,3.3817,3.382,3.3908,3.3908,3.4038,3.4039,0,0,0,0,0,0,0,0,0,0,0,3.3802,3.3804,3.3806,3.382,3.3908,3.3908,3.4037,3.3964,0,0,0,0,0,0,0,0,0,0,3.3875,3.3874,3.3804,3.3806,3.3821,3.3908,3.3909,3.396,3.3969,3.4005,0,3.4043,0,3.4044,3.4049,3.405,0,0,0,3.381,3.3867,3.3881,3.3806,3.3822,3.3908,3.3866,3.3965,3.3974,3.4017,3.4045,3.4049,3.4046,3.405,3.4051,3.4299,3.4301,0,0,3.3805,3.3825,3.3874,3.3888,3.3877,3.3863,3.3868,3.397,3.4001,3.4045,3.4052,3.4048,3.4051,3.4052,3.4298,3.43,0,0,0,3.3798,3.3822,3.3832,3.3883,3.3898,3.3866,3.3872,3.3997,3.3999,3.4053,3.4049,3.4052,3.4054,3.4296,3.4298,3.4397,0,0,0,3.3794,3.3817,3.3831,3.3843,3.3896,3.3949,3.3897,3.3992,3.4002,3.4049,3.4052,3.4055,3.4294,3.4297,3.439,3.4439,0,0,0,3.3793,3.3817,3.3834,3.3844,3.3883,3.3947,3.3954,3.3993,3.4001,3.405,3.4056,3.4293,3.4297,3.4384,3.4429,3.4509,0,0,0,3.3797,3.3919,3.3836,3.3972,3.3883,3.4008,3.3953,3.4045,3.4099,3.4053,3.4294,3.4298,3.4382,3.4423,3.4503,3.4578,3.4612,0,0,3.3962,3.394,3.4018,3.3946,3.4092,3.3993,3.4152,3.4182,3.4168,3.4256,3.4261,3.4392,3.4428,3.4508,3.48,3.4827,0,0,0,3.4077,3.4133,3.4168,3.4221,3.4249,3.4275,3.4279,3.4291,3.4365,3.4218,3.4443,3.4464,3.451,3.4545,3.4568,3.4605,3.4316,3.4316,3.4315,3.4336,3.4314,3.4442,3.443,3.4483,3.4487,3.4527,3.4542,3.4502,3.4556,3.4581,3.4762,3.4804,3.4821,3.486,3.4621,3.4622,3.4622,3.4622,3.4574,3.465,3.4598,3.4702,3.4677,3.4764,3.4773,3.4743,3.4819,3.4741,3.4779,3.4694,3.4851,3.4884,3.463,3.4628,3.4627,3.4627,3.4626,3.474,3.4772,3.4786,3.4861,3.4922,3.4906,3.4982,3.4957,3.4933,3.4972,3.4995,3.4993,3.4986,3.4986,3.4986,3.4987,3.4987,3.4988,3.4988,3.4905,3.4917,3.4985,3.5027,3.5058,3.5096,3.5103,3.5132,3.5158,3.5133,3.5133,3.5088,3.4872,3.4817,3.4998,3.4996,3.4995,3.4994,3.4993,3.515,3.5091,3.5197,3.5229,3.5275,3.5336,3.5305,3.5367,3.5388,3.5426,3.5374,3.5219,3.5193,3.5175,3.5129,3.5379,3.5379,3.5379,3.5379,3.5288,3.5274,3.5376,3.5429,3.5477,3.546,3.5578,3.5585,3.5582,3.5594,3.5554,3.5492,3.5475,3.5459,3.5435,3.5391,3.5703,3.5703,3.5703,3.5436,3.5426,3.5532,3.5532,3.5567,3.5597,3.5707,3.5768,3.5752,3.5716,3.5601,3.5588,3.5487,3.5456,3.5414,3.5376,3.5296,0,0]}]]